Harlan, IA

3:26 PM CDT on August 29, 2016 (GMT -0500)
Harlan Municipal

Weather History for KHNR - May, 2014

Change the Weather History Date:

Sunday, May 25, 2014

  Actual Average Record
Temperature  
Mean Temperature 71 °F -  
Max Temperature 80 °F 75 °F 100 °F (1967)
Min Temperature 62 °F 51 °F 42 °F (1979)
Cooling Degree Days 6    
Growing Degree Days 21 (Base 50)    
Moisture  
Dew Point 64 °F    
Average Humidity 89    
Maximum Humidity 100    
Minimum Humidity 61    
Precipitation  
Precipitation 0.33 in - - ()
Sea Level Pressure  
Sea Level Pressure 30.02 in    
Wind  
Wind Speed 8 mph (SSE)    
Max Wind Speed 20 mph    
Max Gust Speed 25 mph    
Visibility 8 miles    
Events Rain    
Averages and records for this station are not official NWS values.
T = Trace of Precipitation, MM = Missing Value Source: NWS Daily Summary

Daily Weather History Graph

Daily Weather History Graph

Search for Another Location

Airport or City:

Trip Planner

Search our weather history database for the weather conditions in past years. The results will help you decide how hot, cold, wet, or windy it might be!

Date:

Astronomy

May. 25, 2014 Rise Set
Actual Time 5:53 AM CDT 8:43 PM CDT
Civil Twilight 5:20 AM CDT 9:16 PM CDT
Nautical Twilight 4:39 AM CDT 9:57 PM CDT
Astronomical Twilight 3:52 AM CDT 10:45 PM CDT
Moon 4:01 AM CDT (5/25) 5:42 PM CDT (5/25)
Length of Visible Light 15h 55m
Length of Day
14h 49m
Waning Crescent, 10% of the Moon is Illuminated
May 25
Waning Crescent
May 28
New
Jun 5
First Quarter
Jun 12
Full
Jun 19
Last Quarter

Hourly Weather History & Observations

Time (CDT) Temp. Heat Index Dew Point Humidity Pressure Visibility Wind Dir Wind Speed Gust Speed Precip Events Conditions
12:15 AM 66.2 °F - 62.6 °F 88% 30.07 in 10.0 mi SSE 9.2 mph - N/A   Overcast
12:35 AM 66.2 °F - 62.6 °F 88% 30.07 in 10.0 mi SSE 8.1 mph - N/A   Overcast
12:55 AM 66.2 °F - 62.6 °F 88% 30.07 in 10.0 mi SSE 9.2 mph - N/A   Overcast
1:15 AM 66.2 °F - 62.6 °F 88% 30.06 in 10.0 mi SSE 5.8 mph - N/A   Overcast
1:35 AM 66.2 °F - 62.6 °F 88% 30.06 in 10.0 mi SSE 8.1 mph - N/A   Overcast
1:55 AM 66.2 °F - 62.6 °F 88% 30.06 in 10.0 mi SSE 8.1 mph - N/A   Overcast
2:15 AM 66.2 °F - 62.6 °F 88% 30.06 in 10.0 mi SE 9.2 mph - N/A   Overcast
2:35 AM 64.4 °F - 62.6 °F 94% 30.05 in 6.0 mi SE 6.9 mph - N/A   Overcast
2:55 AM 64.4 °F - 62.6 °F 94% 30.04 in 10.0 mi SE 8.1 mph - N/A   Mostly Cloudy
3:15 AM 64.4 °F - 60.8 °F 88% 30.05 in 10.0 mi SSE 6.9 mph - N/A   Mostly Cloudy
3:35 AM 64.4 °F - 60.8 °F 88% 30.05 in 10.0 mi SE 6.9 mph - N/A   Overcast
3:55 AM 64.4 °F - 60.8 °F 88% 30.04 in 10.0 mi SE 6.9 mph - N/A   Overcast
4:15 AM 64.4 °F - 60.8 °F 88% 30.04 in 10.0 mi SSE 6.9 mph - N/A   Overcast
4:35 AM 62.6 °F - 62.6 °F 100% 30.04 in 8.0 mi SE 9.2 mph - N/A   Overcast
4:55 AM 64.4 °F - 62.6 °F 94% 30.04 in 10.0 mi SSE 4.6 mph - 0.01 in   Overcast
5:15 AM 64.4 °F - 62.6 °F 94% 30.04 in 10.0 mi SSE 5.8 mph - N/A   Overcast
5:35 AM 62.6 °F - 62.6 °F 100% 30.04 in 10.0 mi SSE 5.8 mph - N/A   Overcast
5:55 AM 62.6 °F - 62.6 °F 100% 30.04 in 10.0 mi SSE 6.9 mph - N/A   Overcast
6:15 AM 62.6 °F - 62.6 °F 100% 30.04 in 7.0 mi SE 8.1 mph - N/A   Overcast
6:35 AM 62.6 °F - 62.6 °F 100% 30.05 in 7.0 mi SSE 8.1 mph - N/A   Overcast
6:55 AM 62.6 °F - 62.6 °F 100% 30.05 in 4.0 mi SE 6.9 mph - N/A   Overcast
7:15 AM 62.6 °F - 62.6 °F 100% 30.05 in 3.0 mi SSE 6.9 mph 12.7 mph N/A   Overcast
7:35 AM 62.6 °F - 62.6 °F 100% 30.04 in 2.5 mi SE 8.1 mph - N/A   Overcast
7:55 AM 64.4 °F - 62.6 °F 94% 30.05 in 2.5 mi SSE 4.6 mph 11.5 mph N/A   Overcast
8:15 AM 64.4 °F - 62.6 °F 94% 30.05 in 3.0 mi SSE 9.2 mph - N/A   Overcast
8:35 AM 64.4 °F - 62.6 °F 94% 30.05 in 1.8 mi SSE 10.4 mph - N/A   Overcast
8:55 AM 64.4 °F - 62.6 °F 94% 30.05 in 1.2 mi SE 8.1 mph - N/A   Overcast
9:15 AM 64.4 °F - 64.4 °F 100% 30.05 in 2.0 mi SE 9.2 mph - N/A   Overcast
9:55 AM 64.4 °F - 64.4 °F 100% 30.05 in 2.0 mi SSE 6.9 mph - N/A   Overcast
10:15 AM 64.4 °F - 64.4 °F 100% 30.05 in 2.5 mi SE 8.1 mph - N/A   Overcast
10:35 AM 64.4 °F - 64.4 °F 100% 30.05 in 3.0 mi SSE 5.8 mph 12.7 mph N/A   Overcast
10:55 AM 66.2 °F - 64.4 °F 94% 30.04 in 3.0 mi East 4.6 mph - 0.03 in   Mostly Cloudy
11:15 AM 66.2 °F - 64.4 °F 94% 30.04 in 2.5 mi ESE 9.2 mph - N/A   Overcast
11:55 AM 66.2 °F - 66.2 °F 100% 30.04 in 4.0 mi South 11.5 mph - N/A   Mostly Cloudy
12:15 PM 68.0 °F - 66.2 °F 94% 30.03 in 4.0 mi South 13.8 mph - N/A   Scattered Clouds
12:35 PM 69.8 °F - 66.2 °F 88% 30.03 in 5.0 mi South 11.5 mph - N/A   Scattered Clouds
12:55 PM 71.6 °F - 66.2 °F 83% 30.02 in 9.0 mi South 12.7 mph - N/A   Mostly Cloudy
1:15 PM 73.4 °F - 66.2 °F 78% 30.01 in 9.0 mi South 12.7 mph - N/A   Mostly Cloudy
1:55 PM 77.0 °F - 66.2 °F 69% 30.00 in 10.0 mi SSE 11.5 mph 19.6 mph N/A   Scattered Clouds
2:15 PM 77.0 °F - 66.2 °F 69% 30.00 in 10.0 mi SSE 10.4 mph 18.4 mph N/A   Clear
2:35 PM 77.0 °F - 66.2 °F 69% 29.99 in 10.0 mi SSE 9.2 mph - N/A   Clear
2:55 PM 78.8 °F - 66.2 °F 65% 29.99 in 10.0 mi South 9.2 mph 17.3 mph N/A   Partly Cloudy
3:15 PM 78.8 °F - 66.2 °F 65% 29.99 in 10.0 mi South 10.4 mph 16.1 mph N/A   Mostly Cloudy
3:35 PM 80.6 °F 82.7 °F 66.2 °F 61% 29.99 in 10.0 mi SSW 9.2 mph - N/A   Scattered Clouds
3:55 PM 80.6 °F 82.7 °F 66.2 °F 61% 29.97 in 10.0 mi South 11.5 mph - N/A   Partly Cloudy
4:15 PM 78.8 °F - 68.0 °F 69% 29.97 in 10.0 mi SSE 13.8 mph - N/A   Scattered Clouds
4:35 PM 73.4 °F - 66.2 °F 78% 29.98 in 9.0 mi SSW 8.1 mph - N/A   Mostly Cloudy
4:55 PM 69.8 °F - 66.2 °F 88% 29.99 in 1.8 mi SSW 19.6 mph 25.3 mph 0.14 in Rain Light Rain
5:15 PM 68.0 °F - 62.6 °F 83% 29.98 in 3.0 mi SSE 10.4 mph 17.3 mph N/A Rain Rain
5:35 PM 68.0 °F - 64.4 °F 88% 29.96 in 8.0 mi SE 6.9 mph - N/A   Mostly Cloudy
5:55 PM 68.0 °F - 64.4 °F 88% 29.95 in 9.0 mi South 5.8 mph 11.5 mph 0.05 in   Clear
6:15 PM 68.0 °F - 66.2 °F 94% 29.94 in 10.0 mi SSE 6.9 mph - N/A   Clear
6:35 PM 69.8 °F - 68.0 °F 94% 29.94 in 10.0 mi SSE 9.2 mph - N/A   Clear
6:55 PM 69.8 °F - 66.2 °F 88% 29.94 in 10.0 mi SSE 9.2 mph - N/A   Clear
7:15 PM 69.8 °F - 66.2 °F 88% 29.95 in 10.0 mi SSE 9.2 mph - N/A   Clear
7:35 PM 69.8 °F - 68.0 °F 94% 29.96 in 10.0 mi SSE 5.8 mph - N/A   Clear
7:55 PM 69.8 °F - 68.0 °F 94% 29.97 in 10.0 mi SSE 5.8 mph - N/A   Clear
8:15 PM 69.8 °F - 66.2 °F 88% 29.97 in 10.0 mi SSE 4.6 mph - N/A   Partly Cloudy
8:35 PM 68.0 °F - 64.4 °F 88% 29.98 in 10.0 mi SSE 5.8 mph - N/A   Clear
8:55 PM 68.0 °F - 64.4 °F 88% 30.00 in 10.0 mi SSW 4.6 mph - N/A   Clear
9:15 PM 68.0 °F - 64.4 °F 88% 30.00 in 10.0 mi SSE 6.9 mph - N/A   Mostly Cloudy
9:35 PM 68.0 °F - 64.4 °F 88% 29.99 in 10.0 mi SSE 9.2 mph - N/A   Scattered Clouds
9:55 PM 68.0 °F - 64.4 °F 88% 29.99 in 10.0 mi SSE 5.8 mph - N/A   Clear
10:15 PM 68.0 °F - 64.4 °F 88% 29.99 in 10.0 mi Calm Calm - N/A   Clear
10:35 PM 66.2 °F - 64.4 °F 94% 30.00 in - Calm Calm - N/A   Unknown
10:55 PM 66.2 °F - 64.4 °F 94% 30.00 in 10.0 mi Calm Calm - N/A   Clear
11:15 PM 68.0 °F - 64.4 °F 88% 30.02 in 10.0 mi SSW 5.8 mph 12.7 mph N/A   Mostly Cloudy
11:35 PM 68.0 °F - 64.4 °F 88% 30.03 in 4.0 mi SSW 5.8 mph - N/A Rain Light Rain
11:55 PM 68.0 °F - 66.2 °F 94% 30.03 in 6.0 mi SSW 3.5 mph - 0.10 in Rain Light Rain